Flag Weather past 2 weeks in Kawasaki, Japan

Now
52 °F

Partly cloudy.


Feels Like: 49 °F
Forecast: 56 / 67 °F
Wind: 7 mph from Northwest

Location: Tokyo International Airport

Current Time: Nov 22, 2014 at 2:57:41 AM

Latest Report: Nov 22, 2014 at 2:30 AM


Visibility: N/A

Pressure: 30.24 "Hg

Humidity: 82%

Dew point: 46 °F

Location of KawasakiLocation

Historic Weather in Kawasaki — Graph

°F

Kawasaki temperature yesterday

Maximum temperature yesterday: 61 °F (at 2:00 PM)
Minimum temperature yesterday: 48 °F (at 3:00 AM)
Average temperature yesterday: 55 °F

Past Weeks' High & Low Weather Summary

 TemperatureHumidityPressure
High70 °F (Nov 7, 1:00 PM)94% (Nov 10, 12:30 AM)30.36 "Hg (Nov 10, 12:30 AM)
Low46 °F (Nov 14, 6:30 AM)29% (Nov 13, 6:30 PM)29.56 "Hg (Nov 13, 4:00 AM)
Average57 °F58%30.06 "Hg
* Reported Nov 7 1:00 AM — Nov 22 1:30 AM, Kawasaki, Weather by CustomWeather, © 2014

Note: Actual official high and low records may vary slightly from our data, if they occured in-between our weather recording intervals... More about our weather records

Advertising

Kawasaki weather history for previous 24 hours

 ConditionsComfort  
Time TempWeatherWind HumidityBarometerVisibility
1:30 AM
Nov 22
52 °FPassing clouds.6 mph88%30.24 "HgN/A
1:00 AM54 °FPassing clouds.6 mph82%30.27 "HgN/A
12:30 AM54 °FPassing clouds.7 mph82%30.24 "HgN/A
12:00 AM54 °FPassing clouds.8 mph88%30.27 "HgN/A
11:30 PM
Nov 21
54 °FPassing clouds.8 mph88%30.27 "HgN/A
11:00 PM54 °FPassing clouds.7 mph88%30.27 "HgN/A
10:30 PM54 °FPassing clouds.5 mph88%30.27 "HgN/A
10:00 PM55 °FPartly cloudy.2 mph82%30.27 "HgN/A
9:30 PM57 °FPassing clouds.5 mph82%30.27 "HgN/A
9:00 PM57 °FPassing clouds.5 mph82%30.27 "HgN/A
8:30 PM59 °FPassing clouds.8 mph77%30.27 "HgN/A
8:00 PM59 °FPassing clouds.10 mph77%30.27 "HgN/A
7:30 PM59 °FPassing clouds.12 mph77%30.27 "HgN/A
7:00 PM59 °FPassing clouds.14 mph77%30.27 "HgN/A
6:30 PM59 °FPartly cloudy.12 mph77%30.27 "HgN/A
6:00 PM59 °FPartly cloudy.8 mph77%30.27 "HgN/A
5:30 PM59 °FPartly cloudy.9 mph77%30.27 "HgN/A
5:00 PM61 °FPartly cloudy.8 mph68%30.27 "HgN/A
4:30 PM61 °FPartly sunny.7 mph72%30.24 "HgN/A
4:00 PM61 °FPartly sunny.3 mph68%30.24 "HgN/A
3:30 PM59 °FPartly sunny.3 mph68%30.24 "HgN/A
3:00 PM59 °FBroken clouds.3 mph68%30.24 "HgN/A
2:30 PM59 °FScattered clouds.6 mph68%30.24 "HgN/A
2:00 PM61 °FPassing clouds.6 mph63%30.24 "HgN/A
1:30 PM59 °FPassing clouds.6 mph63%30.24 "HgN/A
1:00 PM59 °FPassing clouds.5 mph63%30.27 "HgN/A
12:30 PM59 °FPassing clouds.7 mph63%30.27 "HgN/A
12:00 PM59 °FPassing clouds.6 mph63%30.27 "HgN/A
11:30 AM59 °FPassing clouds.7 mph59%30.27 "HgN/A
11:00 AM57 °FPassing clouds.7 mph59%30.30 "HgN/A
10:30 AM55 °FPassing clouds.10 mph59%30.30 "HgN/A
10:00 AM55 °FPassing clouds.12 mph63%30.33 "HgN/A
9:30 AM54 °FPassing clouds.13 mph67%30.33 "HgN/A
9:00 AM54 °FPassing clouds.13 mph63%30.33 "HgN/A
8:30 AM52 °FScattered clouds.8 mph67%30.33 "HgN/A
8:00 AM50 °FPartly sunny.7 mph71%30.33 "HgN/A
7:30 AM50 °FScattered clouds.12 mph71%30.33 "HgN/A
7:00 AM50 °FPassing clouds.10 mph71%30.30 "HgN/A
6:30 AM48 °FPassing clouds.12 mph71%30.30 "HgN/A
6:00 AM48 °FPassing clouds.10 mph76%30.30 "HgN/A
5:30 AM48 °FPassing clouds.6 mph76%30.30 "HgN/A
5:00 AM48 °FClear.7 mph76%30.27 "Hg10 mi
4:30 AM48 °FClear.7 mph82%30.27 "Hg10 mi
4:00 AM48 °FPassing clouds.8 mph76%30.27 "HgN/A
3:30 AM50 °FPassing clouds.10 mph71%30.27 "HgN/A
3:00 AM48 °FPassing clouds.9 mph82%30.30 "HgN/A
2:30 AM50 °FPassing clouds.7 mph76%30.30 "HgN/A
2:00 AM50 °FPassing clouds.9 mph76%30.30 "HgN/A
Weather by CustomWeather, © 2014

See weather overviewHow to use our weather pages